Pardubice, Czech Republic

7:02 AM CEST on April 28, 2017 (GMT +0200)
Pardubice

Weather History for LKPD - January, 2013

Change the Weather History Date:

Monday, January 7, 2013

  Actual Average Record
Temperature  
Mean Temperature 34 °F -  
Max Temperature 41 °F - - ()
Min Temperature 28 °F - - ()
Degree Days  
Heating Degree Days 30    
Moisture  
Dew Point 30 °F    
Average Humidity 80    
Maximum Humidity 93    
Minimum Humidity 60    
Precipitation  
Precipitation 0.00 in - - ()
Sea Level Pressure  
Sea Level Pressure 30.28 in    
Wind  
Wind Speed 3 mph ()    
Max Wind Speed 8 mph    
Max Gust Speed -    
Visibility 6.2 miles    
Events Rain    
T = Trace of Precipitation, MM = Missing Value Source: Averaged Metar Reports

Daily Weather History Graph

Daily Weather History Graph

Search for Another Location

Airport or City:

Trip Planner

Search our weather history database for the weather conditions in past years. The results will help you decide how hot, cold, wet, or windy it might be!

Date:

Astronomy

Jan. 07, 2013 Rise Set
Actual Time 7:54 AM CET 4:12 PM CET
Civil Twilight 7:16 AM CET 4:50 PM CET
Nautical Twilight 6:35 AM CET 5:31 PM CET
Astronomical Twilight 5:56 AM CET 6:10 PM CET
Moon 2:48 AM CET (1/7) 12:17 PM CET (1/7)
Length of Visible Light 9h 33m
Length of Day
8h 18m
Waning Crescent, 25% of the Moon is Illuminated
Jan 7
Waning Crescent
Jan 11
New
Jan 19
First Quarter
Jan 27
Full
Feb 3
Last Quarter

Hourly Weather History & Observations

Time (CET) Temp. Windchill Dew Point Humidity Pressure Visibility Wind Dir Wind Speed Gust Speed Precip Events Conditions
12:00 AM 41.0 °F 35.8 °F 37.4 °F 87% 30.12 in - WNW 8.1 mph - N/A   Clear
1:00 AM 41.0 °F 37.1 °F 37.4 °F 87% 30.15 in 6.2 mi NW 5.8 mph - N/A   Overcast
1:30 AM 41.0 °F 39.0 °F 37.4 °F 87% 30.15 in 6.2 mi North 3.5 mph - N/A   Overcast
2:00 AM 41.0 °F 37.1 °F 37.4 °F 87% 30.18 in 6.2 mi NE 5.8 mph - N/A   Overcast
3:00 AM 39.2 °F 37.0 °F 35.6 °F 87% 30.18 in 6.2 mi NNE 3.5 mph - N/A   Overcast
4:00 AM 37.4 °F 33.8 °F 33.8 °F 87% 30.21 in 6.2 mi NNE 4.6 mph - N/A Rain Light Rain
5:00 AM 37.4 °F - 32.0 °F 81% 30.21 in 6.2 mi Variable 2.3 mph - N/A Rain Light Rain
6:00 AM 35.6 °F - 32.0 °F 87% 30.24 in 6.2 mi Variable 1.2 mph - N/A Rain Light Rain
8:00 AM 35.6 °F 31.7 °F 30.2 °F 81% 30.27 in 6.2 mi NE 4.6 mph - N/A   Overcast
10:00 AM 35.6 °F 30.7 °F 26.6 °F 70% 30.30 in 6.2 mi East 5.8 mph - N/A   Overcast
11:00 AM 35.6 °F - 28.4 °F 75% 30.33 in 6.2 mi Variable 2.3 mph - N/A   Mostly Cloudy
12:00 PM 35.6 °F - 24.8 °F 65% 30.33 in 6.2 mi Variable 2.3 mph - N/A   Mostly Cloudy
1:00 PM 37.4 °F - 24.8 °F 60% 30.30 in 6.2 mi Variable 2.3 mph - N/A   Mostly Cloudy
2:00 PM 37.4 °F - 24.8 °F 60% 30.33 in - Variable 2.3 mph - N/A   Clear
3:00 PM 35.6 °F - 24.8 °F 65% 30.33 in 6.2 mi Calm Calm - N/A   Mostly Cloudy
4:00 PM 35.6 °F - 26.6 °F 70% 30.33 in 6.2 mi WSW 1.2 mph - N/A   Mostly Cloudy
5:00 PM 35.6 °F - 26.6 °F 70% 30.33 in - Calm Calm - N/A   Clear
6:00 PM 33.8 °F - 26.6 °F 75% 30.33 in - Calm Calm - N/A   Clear
7:00 PM 30.2 °F - 28.4 °F 93% 30.33 in - Variable 1.2 mph - N/A   Clear
8:00 PM 30.2 °F - 28.4 °F 93% 30.33 in - Calm Calm - N/A   Clear
9:00 PM 30.2 °F - 28.4 °F 93% 30.36 in - Calm Calm - N/A   Clear
10:00 PM 28.4 °F - 26.6 °F 93% 30.36 in - SE 2.3 mph - N/A   Clear
11:00 PM 30.2 °F - 28.4 °F 93% 30.33 in - Variable 1.2 mph - N/A   Clear